Regional Weather Roundup
Issued by NWS

Home | Current Version | Previous Version | Graphics & Text | Print | Product List | Glossary On
Versions: 1 2 3 4 5 6 7 8 9 10 11 12 13 14 15 16 17 18 19 20 21 22 23 24 25 26 27 28 29 30 31 32 33 34 35 36 37 38 39 40 41 42 43 44 45 46 47 48 49 50
000
ASUS43 KLSX 221007
RWRMO

WEATHER SUMMARY FOR MISSOURI
NATIONAL WEATHER SERVICE SPRINGFIELD MO
500 AM CDT SUN OCT 22 2017

NOTE: "FAIR" INDICATES FEW OR NO CLOUDS BELOW 12,000 FEET WITH NO
       SIGNIFICANT WEATHER AND/OR OBSTRUCTIONS TO VISIBILITY.
       CURRENT SKY AND/OR WEATHER CONDITIONS ARE NOT AVAILABLE FOR
       CHILLICOTHE AND FARMINGTON.

MOZ001>031-035>038-043-044-053-054-221100-
...NORTHERN AND WESTERN MISSOURI...

CITY           SKY/WX    TMP DP  RH WIND       PRES   REMARKS
KANSAS CTY INT DRIZZLE   49  47  93 N5        30.03R
KANSAS C DTWN  LGT RAIN  52  49  89 NW7       30.03R
LEE`S SUMMIT   RAIN      50  49  96 NW10      30.02R
ST JOSEPH      CLOUDY    50  50 100 W3        30.03R
CHILLICOTHE      N/A     50  49  96 N5        30.00S
KIRKSVILLE     LGT RAIN  51  51 100 N10       29.98R

$$
MOZ066>068-077>081-088>096-101>105-221100-
...SOUTHWEST MISSOURI...

CITY           SKY/WX    TMP DP  RH WIND       PRES   REMARKS
SPRINGFIELD    RAIN      59  59 100 W6        29.94R
JOPLIN         CLOUDY    54  54 100 MISG      30.02R
BRANSON        LGT RAIN  57  57 100 CALM      29.97S

$$
MOZ032>034-039>042-045>050-055>058-069>072-221100-
...CENTRAL MISSOURI...

CITY           SKY/WX    TMP DP  RH WIND       PRES   REMARKS
COLUMBIA       LGT RAIN  57  57 100 NW15      29.93R
JEFFERSON CITY LGT RAIN  59  56  89 W14       29.93R
ROLLA          RAIN      59  59 100 NW14      29.92R
SEDALIA        LGT RAIN  53  53 100 N14       29.96F
WHITEMAN AFB   RAIN      51  49  93 NE17      29.90F
WARRENSBURG    LGT RAIN  50  48  93 N8        29.96F
OSAGE BEACH    LGT RAIN  57  56  96 VRB7G16   29.95R

$$
MOZ051-052-059>065-221100-
...EAST CENTRAL MISSOURI...

CITY           SKY/WX    TMP DP  RH WIND       PRES   REMARKS
ST LOUIS INTL  CLOUDY    70  63  78 SE16      29.86F
SPIRIT OF STL  CLOUDY    72  64  76 S13       29.85F
ST CHARLES     CLOUDY    70  63  78 SE13      29.85F

$$
MOZ072>076-082>087-097>100-106>115-221100-
...SOUTH CENTRAL AND SOUTHEAST MISSOURI...

CITY           SKY/WX    TMP DP  RH WIND       PRES   REMARKS
CAPE GIRARDEAU CLOUDY    69  61  75 S14       29.97R
FARMINGTON     CLOUDY    66  64  93 S17G26    29.91F
POPLAR BLUFF   CLOUDY    71  65  81 S18G24    29.92F
WEST PLAINS    CLOUDY    59  56  89 NW9G20    29.95F

$$



USA.gov is the U.S. government's official web portal to all federal, state and local government web resources and services.